カタログに戻る

SL-16 DEB

運用中LEO
NORAD 22336·DEBRIS·🇷🇺 Russia

打ち上げ Dec 25, 1992 から Baikonur Cosmodrome

Loading…

次のパス (今後24時間)

TLE

最新Source: Space-Track

元期: Sep 14, 2026, 08:33 UTC

1 22336U 92093Z   26257.35685689  .00000326  00000-0  25669-3 0  9993
2 22336  71.1334  39.2735 0116954 239.9236 119.0240 13.95742765710000

AllMySatでSL-16 DEBをリアルタイム追跡

Download on the App Store